CFG4JK EDDF-LOWW

Flight info

Callsign CFG4JK
Flight time 1h 2m
Altitude 31000
Route SULUS7S SULUS Z650 VEMUT/N0449F350 DCT ETVIS DCT BUDWA DCT BUDEX BUDEX2W
Aircraft A321/M-SDE3FGIJ1LORVWXYZ/LB1

Departure

Time 2026-04-16 06:16
Airport Frankfurt Main Airport (EDDF)

Arrival

Time 2026-04-16 07:19
Airport Vienna International Airport (LOWW)
Time Latitude Longitude Altitude Speed Heading
2026-04-16 05:37 50.04418 8.56275 356 ft 0 kts 162°
2026-04-16 06:02 50.04450 8.56258 363 ft 4 kts 164°
2026-04-16 06:02 50.04480 8.56251 360 ft 4 kts 219°
2026-04-16 06:02 50.04489 8.56268 360 ft 0 kts 249°
2026-04-16 06:03 50.04485 8.56252 362 ft 4 kts 249°
2026-04-16 06:03 50.04476 8.56213 359 ft 4 kts 250°
2026-04-16 06:03 50.04466 8.56174 363 ft 4 kts 250°
2026-04-16 06:03 50.04457 8.56134 361 ft 4 kts 250°
2026-04-16 06:04 50.04454 8.56124 363 ft 0 kts 250°
2026-04-16 06:06 50.04454 8.56121 363 ft 1 kts 250°
2026-04-16 06:07 50.04448 8.56095 362 ft 3 kts 250°
2026-04-16 06:07 50.04437 8.56052 360 ft 5 kts 246°
2026-04-16 06:07 50.04407 8.56025 359 ft 6 kts 186°
2026-04-16 06:07 50.04364 8.56043 361 ft 8 kts 160°
2026-04-16 06:08 50.04340 8.56057 362 ft 3 kts 159°
2026-04-16 06:08 50.04324 8.56067 355 ft 3 kts 159°
2026-04-16 06:08 50.04304 8.56074 359 ft 4 kts 175°
2026-04-16 06:08 50.04273 8.56052 358 ft 5 kts 220°
2026-04-16 06:09 50.04249 8.55980 361 ft 11 kts 248°
2026-04-16 06:09 50.04213 8.55831 354 ft 16 kts 250°
2026-04-16 06:09 50.04175 8.55671 356 ft 16 kts 249°
2026-04-16 06:09 50.04138 8.55514 358 ft 15 kts 250°
2026-04-16 06:10 50.04102 8.55363 355 ft 14 kts 249°
2026-04-16 06:10 50.04070 8.55228 358 ft 12 kts 250°
2026-04-16 06:10 50.04041 8.55108 354 ft 12 kts 249°
2026-04-16 06:10 50.04013 8.54994 355 ft 11 kts 250°
2026-04-16 06:11 50.03987 8.54882 354 ft 11 kts 249°
2026-04-16 06:11 50.03958 8.54761 355 ft 12 kts 250°
2026-04-16 06:11 50.03928 8.54636 352 ft 13 kts 250°
2026-04-16 06:11 50.03896 8.54501 353 ft 14 kts 250°
2026-04-16 06:12 50.03858 8.54364 354 ft 13 kts 237°
2026-04-16 06:12 50.03808 8.54247 350 ft 13 kts 243°
2026-04-16 06:12 50.03774 8.54113 352 ft 14 kts 249°
2026-04-16 06:12 50.03740 8.53972 344 ft 14 kts 249°
2026-04-16 06:13 50.03705 8.53828 350 ft 14 kts 250°
2026-04-16 06:13 50.03671 8.53684 348 ft 14 kts 250°
2026-04-16 06:13 50.03636 8.53540 337 ft 14 kts 248°
2026-04-16 06:13 50.03600 8.53399 336 ft 14 kts 250°
2026-04-16 06:14 50.03566 8.53257 336 ft 14 kts 249°
2026-04-16 06:14 50.03532 8.53114 335 ft 14 kts 249°
2026-04-16 06:14 50.03498 8.52972 336 ft 14 kts 249°
2026-04-16 06:14 50.03461 8.52832 334 ft 14 kts 246°
2026-04-16 06:15 50.03433 8.52728 331 ft 8 kts 249°
2026-04-16 06:15 50.03413 8.52647 334 ft 8 kts 249°
2026-04-16 06:15 50.03382 8.52594 332 ft 6 kts 197°
2026-04-16 06:15 50.03331 8.52595 335 ft 12 kts 179°
2026-04-16 06:16 50.03075 8.52598 336 ft 72 kts 180°
2026-04-16 06:16 50.02357 8.52604 335 ft 132 kts 180°
2026-04-16 06:16 50.01279 8.52614 347 ft 175 kts 180°
2026-04-16 06:16 50.00079 8.52631 1068 ft 162 kts 180°
2026-04-16 06:17 49.98993 8.52656 1884 ft 153 kts 182°
2026-04-16 06:17 49.97897 8.52774 2304 ft 166 kts 170°
2026-04-16 06:17 49.96792 8.53533 2667 ft 182 kts 148°
2026-04-16 06:17 49.95826 8.54926 3013 ft 198 kts 128°
2026-04-16 06:18 49.95167 8.56853 3448 ft 206 kts 115°
2026-04-16 06:18 49.94518 8.58910 3768 ft 221 kts 114°
2026-04-16 06:18 49.94076 8.61317 3944 ft 245 kts 96°
2026-04-16 06:18 49.93936 8.64091 4283 ft 268 kts 93°
2026-04-16 06:19 49.93711 8.67002 5030 ft 276 kts 105°
2026-04-16 06:19 49.92930 8.69736 5870 ft 280 kts 125°
2026-04-16 06:19 49.91601 8.71935 6697 ft 282 kts 144°
2026-04-16 06:19 49.90013 8.73684 7479 ft 285 kts 146°
2026-04-16 06:20 49.88516 8.75738 8252 ft 290 kts 131°
2026-04-16 06:20 49.87386 8.78351 9036 ft 294 kts 118°
2026-04-16 06:20 49.86389 8.81150 9867 ft 298 kts 118°
2026-04-16 06:20 49.85372 8.83985 10532 ft 308 kts 119°
2026-04-16 06:21 49.84287 8.86992 10776 ft 331 kts 119°
2026-04-16 06:21 49.83119 8.90213 10991 ft 354 kts 119°
2026-04-16 06:21 49.81880 8.93619 11402 ft 369 kts 120°
2026-04-16 06:21 49.80611 8.97108 12087 ft 375 kts 120°
2026-04-16 06:22 49.79320 9.00643 12821 ft 380 kts 120°
2026-04-16 06:22 49.78030 9.04173 13563 ft 384 kts 120°
2026-04-16 06:22 49.76740 9.07818 14269 ft 389 kts 116°
2026-04-16 06:22 49.75790 9.11765 14910 ft 395 kts 105°
2026-04-16 06:23 49.75133 9.15922 15553 ft 399 kts 104°
2026-04-16 06:23 49.74471 9.20118 16187 ft 404 kts 104°
2026-04-16 06:23 49.73790 9.24361 16812 ft 408 kts 104°
2026-04-16 06:23 49.73094 9.28647 17423 ft 413 kts 104°
2026-04-16 06:24 49.72385 9.32986 18048 ft 418 kts 104°
2026-04-16 06:24 49.71668 9.37359 18620 ft 422 kts 104°
2026-04-16 06:24 49.70943 9.41774 19126 ft 426 kts 104°
2026-04-16 06:24 49.70212 9.46231 19642 ft 430 kts 104°
2026-04-16 06:25 49.69471 9.50724 20140 ft 433 kts 104°
2026-04-16 06:25 49.68730 9.55195 20623 ft 437 kts 104°
2026-04-16 06:25 49.67982 9.59762 21103 ft 440 kts 103°
2026-04-16 06:25 49.67522 9.64454 21577 ft 443 kts 93°
2026-04-16 06:26 49.67556 9.69223 22031 ft 446 kts 83°
2026-04-16 06:26 49.68090 9.73944 22505 ft 447 kts 73°
2026-04-16 06:26 49.68919 9.78586 22976 ft 450 kts 72°
2026-04-16 06:26 49.69756 9.83271 23436 ft 453 kts 72°
2026-04-16 06:27 49.70593 9.87987 23874 ft 457 kts 73°
2026-04-16 06:27 49.71566 9.92679 24245 ft 458 kts 65°
2026-04-16 06:27 49.72945 9.97051 24599 ft 458 kts 57°
2026-04-16 06:27 49.74726 10.01137 24974 ft 458 kts 51°
2026-04-16 06:28 49.76593 10.05151 25373 ft 461 kts 51°
2026-04-16 06:28 49.78470 10.09194 25735 ft 464 kts 51°
2026-04-16 06:28 49.80354 10.13266 26100 ft 467 kts 51°
2026-04-16 06:28 49.82253 10.17380 26460 ft 470 kts 51°
2026-04-16 06:29 49.84158 10.21519 26803 ft 473 kts 51°
2026-04-16 06:29 49.86073 10.25690 27158 ft 476 kts 51°
2026-04-16 06:29 49.88000 10.29892 27484 ft 479 kts 51°
2026-04-16 06:29 49.89909 10.34064 27818 ft 481 kts 52°
2026-04-16 06:30 49.91858 10.38328 28159 ft 484 kts 52°
2026-04-16 06:30 49.93812 10.42610 28495 ft 487 kts 52°
2026-04-16 06:30 49.95776 10.46923 28849 ft 490 kts 52°
2026-04-16 06:30 49.97749 10.51260 29172 ft 493 kts 52°
2026-04-16 06:31 49.99724 10.55616 29608 ft 493 kts 52°
2026-04-16 06:31 50.01692 10.59966 30051 ft 492 kts 52°
2026-04-16 06:31 50.03436 10.64556 30452 ft 495 kts 63°
2026-04-16 06:31 50.04647 10.69589 30797 ft 498 kts 73°
2026-04-16 06:32 50.05289 10.74872 31145 ft 499 kts 84°
2026-04-16 06:32 50.05340 10.80273 31497 ft 498 kts 95°
2026-04-16 06:32 50.04807 10.85528 31853 ft 496 kts 106°
2026-04-16 06:32 50.03787 10.90654 32226 ft 495 kts 110°
2026-04-16 06:33 50.02711 10.95736 32616 ft 494 kts 110°
2026-04-16 06:33 50.01632 11.00811 33003 ft 493 kts 111°
2026-04-16 06:33 50.00552 11.05869 33406 ft 492 kts 111°
2026-04-16 06:33 49.99470 11.10924 33815 ft 492 kts 111°
2026-04-16 06:34 49.98393 11.15951 34198 ft 491 kts 111°
2026-04-16 06:34 49.97325 11.20927 34509 ft 490 kts 111°
2026-04-16 06:34 49.96250 11.25945 34828 ft 490 kts 111°
2026-04-16 06:34 49.95180 11.30971 35119 ft 490 kts 111°
2026-04-16 06:35 49.93057 11.40994 35220 ft 487 kts 110°
2026-04-16 06:35 49.91108 11.51048 35217 ft 485 kts 108°
2026-04-16 06:36 49.89331 11.61075 35211 ft 485 kts 108°
2026-04-16 06:36 49.87854 11.71278 35208 ft 487 kts 99°
2026-04-16 06:37 49.86955 11.81681 35206 ft 487 kts 99°
2026-04-16 06:37 49.86017 11.92089 35202 ft 487 kts 99°
2026-04-16 06:38 49.85072 12.02480 35202 ft 487 kts 99°
2026-04-16 06:38 49.84133 12.12871 35197 ft 487 kts 99°
2026-04-16 06:39 49.83190 12.23192 35200 ft 487 kts 99°
2026-04-16 06:39 49.82235 12.33584 35192 ft 487 kts 99°
2026-04-16 06:40 49.80948 12.43843 35197 ft 483 kts 111°
2026-04-16 06:40 49.78034 12.53088 35195 ft 475 kts 128°
2026-04-16 06:41 49.74319 12.61535 35195 ft 475 kts 128°
2026-04-16 06:41 49.70622 12.69926 35178 ft 475 kts 128°
2026-04-16 06:42 49.66891 12.78360 35188 ft 474 kts 128°
2026-04-16 06:42 49.63155 12.86758 35197 ft 474 kts 128°
2026-04-16 06:43 49.59448 12.95084 35204 ft 474 kts 128°
2026-04-16 06:43 49.55716 13.03450 35204 ft 474 kts 128°
2026-04-16 06:44 49.51982 13.11801 35204 ft 473 kts 128°
2026-04-16 06:44 49.48237 13.20142 35223 ft 473 kts 128°
2026-04-16 06:45 49.44487 13.28473 35217 ft 473 kts 128°
2026-04-16 06:45 49.40748 13.36740 35198 ft 473 kts 128°
2026-04-16 06:46 49.36982 13.45040 35202 ft 473 kts 128°
2026-04-16 06:46 49.33224 13.53310 35198 ft 472 kts 128°
2026-04-16 06:47 49.29457 13.61559 35205 ft 472 kts 128°
2026-04-16 06:47 49.25654 13.69737 35211 ft 471 kts 129°
2026-04-16 06:48 49.21776 13.77814 35216 ft 471 kts 130°
2026-04-16 06:48 49.17882 13.85886 35207 ft 471 kts 129°
2026-04-16 06:49 49.14032 13.93899 35212 ft 471 kts 129°
2026-04-16 06:49 49.10159 14.01968 35201 ft 471 kts 129°
2026-04-16 06:50 49.06284 14.10026 35211 ft 471 kts 129°
2026-04-16 06:50 49.02398 14.18055 35214 ft 470 kts 129°
2026-04-16 06:51 48.98505 14.26064 35216 ft 470 kts 129°
2026-04-16 06:51 48.94601 14.34064 35120 ft 471 kts 129°
2026-04-16 06:52 48.92618 14.38080 34232 ft 480 kts 129°
2026-04-16 06:52 48.90583 14.42129 33256 ft 485 kts 130°
2026-04-16 06:52 48.88534 14.46163 32348 ft 488 kts 130°
2026-04-16 06:52 48.86450 14.50250 31432 ft 491 kts 130°
2026-04-16 06:53 48.84349 14.54370 30440 ft 495 kts 130°
2026-04-16 06:53 48.82232 14.58525 29359 ft 498 kts 129°
2026-04-16 06:53 48.80111 14.62692 28268 ft 500 kts 129°
2026-04-16 06:53 48.78008 14.66835 27799 ft 490 kts 129°
2026-04-16 06:54 48.75935 14.70914 27099 ft 487 kts 129°
2026-04-16 06:54 48.73875 14.74957 26438 ft 483 kts 129°
2026-04-16 06:54 48.71828 14.78965 25786 ft 479 kts 129°
2026-04-16 06:54 48.69815 14.82902 25139 ft 475 kts 129°
2026-04-16 06:55 48.68453 14.85563 24709 ft 473 kts 129°
2026-04-16 06:55 48.66442 14.89484 24075 ft 470 kts 129°
2026-04-16 06:55 48.63797 14.94627 23170 ft 465 kts 129°
2026-04-16 06:55 48.62465 14.97213 22781 ft 460 kts 129°
2026-04-16 06:56 48.60539 15.01039 22199 ft 454 kts 125°
2026-04-16 06:56 48.58994 15.05166 21644 ft 449 kts 115°
2026-04-16 06:56 48.57950 15.09570 21105 ft 443 kts 104°
2026-04-16 06:56 48.57184 15.14049 20584 ft 436 kts 104°
2026-04-16 06:57 48.56432 15.18453 20098 ft 431 kts 104°
2026-04-16 06:57 48.55694 15.22751 19619 ft 425 kts 104°
2026-04-16 06:57 48.54955 15.27037 19142 ft 420 kts 104°
2026-04-16 06:57 48.54220 15.31283 18673 ft 415 kts 104°
2026-04-16 06:58 48.53490 15.35470 18168 ft 410 kts 104°
2026-04-16 06:58 48.52768 15.39595 17698 ft 404 kts 104°
2026-04-16 06:58 48.52099 15.43682 17238 ft 399 kts 100°
2026-04-16 06:58 48.51799 15.47828 17020 ft 400 kts 94°
2026-04-16 06:59 48.51579 15.52022 16853 ft 403 kts 94°
2026-04-16 06:59 48.51344 15.56235 16661 ft 402 kts 94°
2026-04-16 06:59 48.51100 15.60434 16464 ft 401 kts 95°
2026-04-16 06:59 48.50855 15.64614 16275 ft 400 kts 94°
2026-04-16 07:00 48.50615 15.68781 16076 ft 398 kts 94°
2026-04-16 07:00 48.50379 15.72874 15740 ft 395 kts 94°
2026-04-16 07:00 48.50138 15.76986 15238 ft 392 kts 95°
2026-04-16 07:01 48.49658 15.85107 14281 ft 386 kts 95°
2026-04-16 07:01 48.49418 15.89121 13796 ft 383 kts 95°
2026-04-16 07:01 48.49176 15.93105 13281 ft 379 kts 95°
2026-04-16 07:01 48.48934 15.97053 12764 ft 377 kts 95°
2026-04-16 07:02 48.48691 16.00974 12248 ft 374 kts 95°
2026-04-16 07:02 48.48451 16.04859 11738 ft 371 kts 94°
2026-04-16 07:02 48.48214 16.08723 11276 ft 369 kts 94°
2026-04-16 07:02 48.47999 16.12519 10767 ft 366 kts 93°
2026-04-16 07:03 48.47836 16.16333 10265 ft 363 kts 92°
2026-04-16 07:03 48.47703 16.20124 9866 ft 357 kts 91°
2026-04-16 07:03 48.47582 16.23783 9730 ft 343 kts 91°
2026-04-16 07:03 48.47462 16.27300 9595 ft 329 kts 91°
2026-04-16 07:04 48.47339 16.30681 9461 ft 316 kts 92°
2026-04-16 07:04 48.47215 16.33930 9325 ft 305 kts 92°
2026-04-16 07:04 48.47090 16.37081 9026 ft 299 kts 92°
2026-04-16 07:04 48.46965 16.40160 8833 ft 298 kts 92°
2026-04-16 07:05 48.46837 16.43272 8647 ft 297 kts 92°
2026-04-16 07:05 48.46709 16.46374 8470 ft 297 kts 93°
2026-04-16 07:05 48.46321 16.49423 8284 ft 297 kts 107°
2026-04-16 07:05 48.45498 16.52286 8121 ft 297 kts 120°
2026-04-16 07:06 48.44293 16.54797 7994 ft 296 kts 133°
2026-04-16 07:06 48.42764 16.56859 8019 ft 296 kts 146°
2026-04-16 07:06 48.40986 16.58404 7941 ft 295 kts 158°
2026-04-16 07:06 48.39053 16.59374 7826 ft 292 kts 166°
2026-04-16 07:07 48.37093 16.60191 7700 ft 292 kts 166°
2026-04-16 07:07 48.35139 16.61012 7573 ft 292 kts 166°
2026-04-16 07:07 48.33208 16.61823 7453 ft 291 kts 166°
2026-04-16 07:07 48.31257 16.62643 7322 ft 291 kts 166°
2026-04-16 07:08 48.29306 16.63463 7197 ft 291 kts 166°
2026-04-16 07:08 48.27359 16.64283 7074 ft 291 kts 166°
2026-04-16 07:08 48.25411 16.65106 6951 ft 290 kts 166°
2026-04-16 07:08 48.23469 16.65926 6825 ft 290 kts 166°
2026-04-16 07:09 48.21526 16.66745 6710 ft 288 kts 166°
2026-04-16 07:09 48.19630 16.67540 6569 ft 277 kts 167°
2026-04-16 07:09 48.17806 16.68302 6426 ft 267 kts 167°
2026-04-16 07:09 48.16040 16.69038 6224 ft 259 kts 166°
2026-04-16 07:10 48.14320 16.69754 5978 ft 255 kts 166°
2026-04-16 07:10 48.12634 16.70458 5714 ft 253 kts 166°
2026-04-16 07:10 48.10942 16.71165 5456 ft 252 kts 165°
2026-04-16 07:10 48.09253 16.71871 5207 ft 251 kts 165°
2026-04-16 07:11 48.07572 16.72572 5006 ft 250 kts 164°
2026-04-16 07:11 48.05901 16.73269 4795 ft 247 kts 164°
2026-04-16 07:11 48.04251 16.73955 4587 ft 245 kts 164°
2026-04-16 07:11 48.02612 16.74633 4381 ft 244 kts 164°
2026-04-16 07:12 48.00977 16.75310 4173 ft 243 kts 164°
2026-04-16 07:12 47.99372 16.75978 4037 ft 242 kts 164°
2026-04-16 07:12 47.97775 16.76639 3994 ft 234 kts 164°
2026-04-16 07:12 47.96209 16.77283 4006 ft 232 kts 164°
2026-04-16 07:13 47.94658 16.77921 4004 ft 227 kts 164°
2026-04-16 07:13 47.93134 16.78357 3996 ft 222 kts 183°
2026-04-16 07:13 47.91705 16.77635 4005 ft 218 kts 219°
2026-04-16 07:13 47.90822 16.75869 4012 ft 213 kts 253°
2026-04-16 07:14 47.90399 16.73751 4011 ft 212 kts 260°
2026-04-16 07:14 47.90454 16.71607 3997 ft 206 kts 290°
2026-04-16 07:14 47.91109 16.69752 3709 ft 202 kts 305°
2026-04-16 07:14 47.91880 16.67983 3370 ft 204 kts 306°
2026-04-16 07:15 47.92777 16.66403 3066 ft 198 kts 323°
2026-04-16 07:15 47.93975 16.65413 2996 ft 197 kts 342°
2026-04-16 07:15 47.95285 16.64853 3008 ft 199 kts 345°
2026-04-16 07:15 47.96617 16.64293 2985 ft 193 kts 345°
2026-04-16 07:16 47.97863 16.63769 2843 ft 177 kts 345°
2026-04-16 07:16 47.98975 16.63300 2631 ft 155 kts 345°
2026-04-16 07:16 47.99971 16.62881 2436 ft 145 kts 345°
2026-04-16 07:16 48.00926 16.62480 2246 ft 140 kts 344°
2026-04-16 07:17 48.01848 16.62092 2070 ft 138 kts 344°
2026-04-16 07:17 48.02774 16.61702 1881 ft 137 kts 344°
2026-04-16 07:17 48.03685 16.61313 1716 ft 136 kts 344°
2026-04-16 07:17 48.04600 16.60930 1519 ft 136 kts 345°
2026-04-16 07:18 48.05509 16.60548 1314 ft 136 kts 343°
2026-04-16 07:18 48.06418 16.60164 1120 ft 135 kts 343°
2026-04-16 07:18 48.07333 16.59778 953 ft 138 kts 342°
2026-04-16 07:18 48.08255 16.59386 770 ft 139 kts 343°
2026-04-16 07:19 48.09178 16.59001 629 ft 137 kts 343°
2026-04-16 07:19 48.09998 16.58653 621 ft 101 kts 345°
2026-04-16 07:19 48.10453 16.58463 620 ft 42 kts 344°
2026-04-16 07:19 48.10647 16.58364 612 ft 17 kts 330°
2026-04-16 07:20 48.10742 16.58262 621 ft 16 kts 319°
2026-04-16 07:20 48.10809 16.58161 615 ft 12 kts 314°
2026-04-16 07:20 48.10867 16.58072 617 ft 11 kts 314°
2026-04-16 07:20 48.10923 16.57995 615 ft 11 kts 328°
2026-04-16 07:21 48.10991 16.57957 617 ft 10 kts 344°
2026-04-16 07:21 48.11059 16.57928 614 ft 10 kts 344°
2026-04-16 07:21 48.11108 16.57872 618 ft 9 kts 294°
2026-04-16 07:21 48.11133 16.57791 613 ft 8 kts 296°
2026-04-16 07:22 48.11158 16.57714 623 ft 8 kts 296°
2026-04-16 07:22 48.11181 16.57643 613 ft 7 kts 296°
2026-04-16 07:22 48.11203 16.57576 614 ft 7 kts 296°
2026-04-16 07:22 48.11224 16.57514 615 ft 6 kts 296°
2026-04-16 07:23 48.11242 16.57457 618 ft 6 kts 296°
2026-04-16 07:23 48.11260 16.57402 617 ft 6 kts 295°
2026-04-16 07:23 48.11286 16.57322 623 ft 11 kts 296°
2026-04-16 07:23 48.11319 16.57221 622 ft 11 kts 296°
2026-04-16 07:24 48.11351 16.57123 620 ft 10 kts 296°
2026-04-16 07:24 48.11381 16.57029 620 ft 10 kts 296°
2026-04-16 07:24 48.11411 16.56938 615 ft 9 kts 296°
2026-04-16 07:24 48.11439 16.56852 615 ft 9 kts 296°
2026-04-16 07:25 48.11465 16.56771 620 ft 8 kts 296°
2026-04-16 07:25 48.11490 16.56695 613 ft 8 kts 296°
2026-04-16 07:25 48.11516 16.56616 617 ft 10 kts 296°
2026-04-16 07:25 48.11548 16.56517 618 ft 10 kts 296°
2026-04-16 07:26 48.11579 16.56422 615 ft 10 kts 296°
2026-04-16 07:26 48.11609 16.56331 617 ft 10 kts 296°
2026-04-16 07:26 48.11636 16.56249 619 ft 7 kts 296°
2026-04-16 07:26 48.11653 16.56194 625 ft 4 kts 296°
2026-04-16 07:27 48.11663 16.56164 621 ft 4 kts 296°
2026-04-16 07:27 48.11682 16.56108 614 ft 8 kts 296°
2026-04-16 07:27 48.11714 16.56008 609 ft 13 kts 296°
2026-04-16 07:27 48.11758 16.55874 614 ft 16 kts 296°
2026-04-16 07:28 48.11801 16.55738 611 ft 13 kts 296°
2026-04-16 07:28 48.11836 16.55634 619 ft 10 kts 296°
2026-04-16 07:28 48.11860 16.55560 609 ft 6 kts 295°
2026-04-16 07:28 48.11873 16.55515 619 ft 4 kts 293°
2026-04-16 07:29 48.11887 16.55469 612 ft 4 kts 300°
2026-04-16 07:29 48.11913 16.55449 615 ft 6 kts 351°
2026-04-16 07:29 48.11962 16.55473 613 ft 7 kts 25°
2026-04-16 07:29 48.11997 16.55498 623 ft 4 kts 25°
2026-04-16 07:30 48.12025 16.55517 614 ft 7 kts 25°
2026-04-16 07:30 48.12077 16.55555 613 ft 8 kts 26°
2026-04-16 07:30 48.12101 16.55599 609 ft 4 kts 80°
2026-04-16 07:30 48.12098 16.55626 618 ft 2 kts 108°
2026-04-16 07:31 48.12093 16.55642 609 ft 1 kts 114°
2026-04-16 07:31 48.12091 16.55649 621 ft 1 kts 115°
2026-04-16 07:31 48.12089 16.55654 620 ft 1 kts 115°
2026-04-16 07:31 48.12088 16.55658 623 ft 0 kts 115°